Location: El Mouella
(16.4949°N, 9.1594°W)
Time: 19:49:10
(UTC+00:00)

Daily predictions for brighter satellites

Satellite Brightness Start Highest point End
(mag) Time Altitude Azimuth Time Altitude Azimuth Time Altitude Azimuth
Gbstr 26 Del rocket 4.5 19:17:22 10° NW 19:25:27 86° NE 19:32:34 10° SE
DNEPR-1 R/B 4.2 19:23:46 10° N 19:28:42 45° ENE 19:32:53 10° SE
Okean 1 3.9 19:25:35 10° SSE 19:29:18 36° E 19:33:01 10° NNE
YAOGAN 1 2.5 19:28:08 10° SSE 19:32:26 77° ENE 19:36:45 10° N
Cosmos 1939 Rocket 3.2 19:29:13 10° S 19:33:14 73° WSW 19:37:19 10° NNW
CZ-2C R/B 4.0 19:29:59 10° NE 19:33:54 19° E 19:37:47 10° SE
Cosmos 371 Rocket 4.2 19:32:21 10° SSE 19:36:21 26° E 19:40:22 10° NE
Cosmos 1464 Rocket 4.4 19:32:30 10° NNE 19:38:34 45° E 19:44:35 10° SSE
CSL-04 Debris 4.2 19:34:04 10° SSE 19:39:24 67° ENE 19:44:44 10° N
Hubble Space Telescope 2.5 19:36:25 10° NW 19:39:53 25° NNE 19:43:20 10° ENE
Meteor 1-18 Rocket 4.3 19:39:19 10° S 19:44:44 57° E 19:50:12 10° NNE
Cosmos 1743 4.2 19:42:13 10° NE 19:44:52 18° E 19:46:49 13° ESE
CZ-4 R/B 2.6 19:43:36 10° S 19:47:36 45° W 19:51:38 10° NNW
CZ-2D R/B 4.2 19:43:52 10° S 19:47:37 50° W 19:51:23 10° NNW
STARLINK-1166 4.4 19:44:04 10° NNW 19:47:54 37° NE 19:50:58 14° ESE
GPS 2-14 Rocket1 3.9 19:45:31 10° SW 19:49:01 26° SSE 19:51:37 15° ESE
Cosmos 1733 Rocket 3.2 19:47:55 10° N 19:52:13 76° W 19:56:31 10° S
Cosmos 2242 Rocket 4.1 19:48:06 10° SSW 19:52:27 62° W 19:56:47 10° N
STARLINK-1165 4.2 19:48:58 10° NNW 19:52:53 42° NE 19:55:45 17° ESE
ARIANE 44P R/B 4.4 19:41:07 10° WSW 19:55:45 31° SSW 19:58:56 15° SE
USA 186 3.2 19:57:35 14° ENE 19:57:35 14° ENE 19:58:46 10° NE
STARLINK-1169 4.0 19:53:52 10° NNW 19:57:52 48° NE 20:00:32 19° ESE
Ariane Rocket 3.7 19:55:46 14° SE 19:59:31 34° ENE 20:04:03 10° N
CZ-2C R/B 4.3 19:56:14 10° NE 20:00:24 35° E 20:04:39 10° SSE
Cosmos 1666 3.5 19:56:45 10° NNW 20:00:26 51° W 20:04:06 10° S
STARLINK-1178 3.8 19:58:46 10° NNW 20:02:49 56° NE 20:05:19 22° SE
Cosmos 1461 2.8 19:59:49 10° SSW 20:03:43 83° WNW 20:07:49 10° NNE
Cosmos 1536 3.8 20:00:46 10° NNW 20:04:41 49° W 20:08:36 10° SSW
Cosmos 1607 4.1 19:59:17 10° NNW 20:05:44 79° WSW 20:12:09 10° SSE
FREGAT/IRIS 3.9 20:06:14 20° ENE 20:06:14 20° ENE 20:08:01 10° NNE
Cosmos 1515 3.5 20:02:55 10° S 20:06:42 72° E 20:10:30 10° N
STARLINK-1120 3.6 20:03:41 10° NNW 20:07:47 65° NE 20:10:05 25° SE
Okean 3 4.3 20:06:44 21° SE 20:08:43 30° E 20:12:29 10° NNE
Cosmos 2278 Rocket 3.4 20:03:47 10° SW 20:09:08 44° WNW 20:14:32 10° N
Tsikada Rocket 4.0 20:06:01 10° S 20:12:14 87° W 20:18:25 10° N
STARLINK-1131 3.5 20:08:39 10° NNW 20:12:46 76° NE 20:14:53 28° SE
STARLINK-60 2.8 20:11:36 10° SW 20:14:46 88° NW 20:17:54 10° NE
ASC 2 Rocket 3.6 20:10:21 10° SW 20:14:49 52° SSE 20:19:27 17° E
H-2A R/B 1.9 20:10:48 14° SSE 20:14:59 68° ENE 20:20:02 10° N
STARLINK-1190 3.5 20:13:38 10° NW 20:17:46 88° NE 20:19:41 31° SE
Delta 198 4.4 20:14:22 10° WNW 20:19:26 46° NNE 20:22:05 22° ENE
STARLINK-1129 3.6 20:18:35 10° NW 20:22:42 81° SW 20:24:27 33° SSE
GPS 2-12 Rocket1 3.5 20:18:27 10° WNW 20:22:48 53° N 20:25:23 22° ENE
OAO 3 Copernicus 4.5 20:20:55 10° WNW 20:25:55 64° SW 20:28:07 32° SE
STARLINK-1134 3.7 20:23:33 10° NW 20:27:39 69° SW 20:29:13 36° SSE
NOSS 2-2 (D) 3.0 20:23:44 10° SSW 20:27:50 87° ESE 20:31:24 10° NNE
Cosmos 1356 3.5 20:26:25 10° N 20:29:46 53° E 20:29:46 53° E
Cosmos 2221 Rocket 3.6 20:28:45 30° SSE 20:30:45 58° E 20:35:12 10° NNE
Cosmos 1782 Rocket 3.8 20:26:46 10° N 20:31:04 48° E 20:31:52 42° ESE
GPS 2-18 Rocket1 3.8 20:27:22 10° W 20:31:08 41° SSW 20:31:46 38° S
SL-4 R/B 2.4 20:27:02 10° SW 20:31:24 75° NW 20:36:05 10° NE
Intelsat 5-1 Rocket 1.5 20:30:02 10° W 20:32:19 47° NNW 20:32:20 47° NNW
Cosmos 332 Rocket 3.7 20:27:32 10° SSW 20:32:26 89° W 20:37:20 10° NNE
STARLINK-1135 3.9 20:28:35 10° NW 20:32:39 59° SW 20:34:02 37° S
Meteor 1-4 Rocket 4.0 20:29:38 10° SSW 20:32:49 35° W 20:36:00 10° NNW
STARLINK-1141 4.2 20:33:36 10° NW 20:37:36 51° SW 20:38:48 37° S
STARLINK-1140 4.4 20:38:37 10° NW 20:42:33 44° SW 20:43:35 36° SSW
SWIFT 2.7 20:44:34 10° W 20:48:47 59° N 20:49:39 48° NE
Resurs 01 Rocket 3.4 20:51:41 20° NE 20:51:41 20° NE 20:53:43 10° NNE
Cosmos 1437 Rocket 4.4 20:54:12 24° NNE 20:54:12 24° NNE 20:55:51 10° NNE
ASTEX 1 4.1 20:52:11 20° SSW 20:55:18 49° W 21:00:02 10° NNW
MOS 1 4.4 20:53:17 34° S 20:55:54 75° WSW 21:01:36 10° NNW
Sich 1 Rocket 3.7 20:54:55 10° N 20:58:57 63° NE 20:58:57 63° NE
ARGOS 3.9 20:56:54 23° SSW 21:00:01 49° W 21:05:11 10° NNW
Cosmos 407 Rocket 4.0 20:57:29 10° NNW 21:02:42 56° WSW 21:04:27 38° SSW
Aureole 1 Rocket 4.1 20:57:26 10° NNW 21:03:22 81° WSW 21:06:14 40° S
Cosmos 972 Rocket 4.2 21:02:45 51° S 21:04:17 78° E 21:10:38 10° NNE
USA 267 3.7 21:01:41 34° S 21:04:20 54° SW 21:10:42 10° NW
Cosmos 1943 Rocket 3.3 21:11:25 29° NE 21:11:25 29° NE 21:14:13 10° NNE
ATLAS 2AS CENTAUR R/B 4.1 21:15:12 27° ENE 21:15:12 27° ENE 21:19:00 10° NE
Resurs 1-3 4.3 21:13:02 48° N 21:13:02 48° N 21:16:13 10° N
Cosmos 1140 Rocket 3.8 21:08:53 10° NNW 21:14:00 60° WSW 21:14:36 56° SW
CZ-2C R/B 4.3 21:09:04 10° NNW 21:14:01 33° WNW 21:18:55 10° SW
Cosmos 2279 Rocket 4.3 21:09:36 10° N 21:14:43 47° ENE 21:14:43 47° ENE
COSMOS 2406 3.3 21:15:24 10° NNW 21:21:06 70° WSW 21:21:24 68° SW
Hubble Space Telescope 2.3 21:17:08 10° WNW 21:19:36 35° WNW 21:19:36 35° WNW
Cosmos 1975 4.5 21:18:52 10° NNW 21:22:05 31° W 21:22:05 31° W
Cosmos 909 Rocket 4.1 21:18:50 10° NNW 21:25:23 69° WSW 21:26:03 64° SSW
Cosmos 1833 Rocket 2.9 21:21:19 10° NNW 21:25:57 60° N 21:25:57 60° N
Cosmos 2369 Rocket 4.1 21:32:50 19° NNE 21:32:50 19° NNE 21:34:20 10° NNE
Cosmos 2082 Rocket 3.3 21:30:31 10° N 21:34:01 35° NNE 21:34:01 35° NNE
Milstar 3 Cent rocket 3.7 21:30:30 10° W 21:37:32 68° NNW 21:52:57 10° ENE
Lacrosse 5 4.2 22:08:38 10° NNW 22:10:11 20° NNW 22:10:11 20° NNW
VEP-3 4.4 22:39:09 10° W 22:55:00 - ENE 22:41:27 24° WNW
ATLAS 2AS CENTAUR R/B 4.4 23:02:27 31° WNW 23:02:38 31° WNW 23:09:29 10° N
